Wheeling, WV

3:43 PM EST on December 06, 2019 (GMT -0500)
Wheeling-Ohio County

Weather History for KHLG - October, 2019

Change the Weather History Date:

Saturday, October 5, 2019

  Actual Average Record
Temperature  
Mean Temperature 57 °F 57 °F  
Max Temperature 70 °F 67 °F 87 °F (2007)
Min Temperature 43 °F 47 °F 26 °F (1935)
Degree Days  
Heating Degree Days 8 9  
Month to date heating degree days 16 40  
Since 1 July heating degree days 17 141  
Cooling Degree Days 0 1  
Month to date cooling degree days 40 5  
Year to date cooling degree days 986 683  
Growing Degree Days 6 (Base 50)    
Moisture  
Dew Point 44 °F    
Average Humidity 68    
Maximum Humidity 86    
Minimum Humidity 49    
Precipitation  
Precipitation 0.00 in 0.08 in 1.20 in (1904)
Month to date precipitation T 0.43  
Year to date precipitation 27.98 30.20  
Sea Level Pressure  
Sea Level Pressure 30.20 in    
Wind  
Wind Speed 10 mph (East)    
Max Wind Speed 15 mph    
Max Gust Speed 19 mph    
Visibility 10 miles    
Events      
T = Trace of Precipitation, MM = Missing Value Source: NWS Daily Summary

Daily Weather History Graph

Daily Weather History Graph

Search for Another Location

Airport or City:

Astronomy

Oct. 05, 2019 Rise Set
Actual Time 7:22 AM EDT 6:58 PM EDT
Civil Twilight 6:55 AM EDT 7:25 PM EDT
Nautical Twilight 6:24 AM EDT 7:57 PM EDT
Astronomical Twilight 5:52 AM EDT 8:28 PM EDT
Moon 2:47 PM EDT (10/5) No Moon Set
Length of Visible Light 12h 30m
Length of Day
11h 36m
Waxing Crescent, 50% of the Moon is Illuminated
Oct 5
Waxing Crescent
Oct 5
First Quarter
Oct 13
Full
Oct 21
Last Quarter
Oct 27
New

Hourly Weather History & Observations

Time (EDT) Temp. Windchill Dew Point Humidity Pressure Visibility Wind Dir Wind Speed Gust Speed Precip Events Conditions
12:53 AM 46.9 °F - 42.1 °F 83% 30.32 in 10.0 mi NE 9.2 mph - N/A   Clear
1:53 AM 46.0 °F 42.5 °F 41.0 °F 83% 30.32 in 10.0 mi ENE 6.9 mph - N/A   Clear
2:53 AM 45.0 °F 40.6 °F 41.0 °F 86% 30.31 in 10.0 mi ENE 8.1 mph - N/A   Clear
3:53 AM 45.0 °F 40.6 °F 39.9 °F 82% 30.30 in 10.0 mi ENE 8.1 mph - N/A   Clear
4:53 AM 44.1 °F 39.5 °F 39.0 °F 82% 30.29 in 10.0 mi ENE 8.1 mph - N/A   Clear
5:53 AM 43.0 °F 37.2 °F 39.0 °F 86% 30.28 in 10.0 mi ENE 10.4 mph - N/A   Clear
6:53 AM 43.0 °F 36.8 °F 39.0 °F 86% 30.28 in 10.0 mi East 11.5 mph - N/A   Clear
7:53 AM 43.0 °F 37.7 °F 37.9 °F 82% 30.28 in 10.0 mi East 9.2 mph - N/A   Clear
8:53 AM 46.0 °F 40.2 °F 39.0 °F 76% 30.28 in 10.0 mi East 12.7 mph - N/A   Clear
9:53 AM 50.0 °F - 39.9 °F 68% 30.27 in 10.0 mi East 8.1 mph - N/A   Clear
10:53 AM 55.0 °F - 42.1 °F 62% 30.27 in 10.0 mi East 11.5 mph - N/A   Clear
11:53 AM 59.0 °F - 45.0 °F 60% 30.25 in 10.0 mi East 10.4 mph - N/A   Clear
12:53 PM 62.1 °F - 46.0 °F 56% 30.23 in 10.0 mi East 8.1 mph - N/A   Clear
1:53 PM 64.9 °F - 48.0 °F 54% 30.18 in 10.0 mi East 8.1 mph 18.4 mph N/A   Clear
2:53 PM 66.9 °F - 48.0 °F 51% 30.16 in 10.0 mi ESE 8.1 mph - N/A   Clear
3:53 PM 69.1 °F - 48.9 °F 49% 30.13 in 10.0 mi SE 8.1 mph - N/A   Clear
4:53 PM 69.1 °F - 50.0 °F 51% 30.11 in 10.0 mi ESE 9.2 mph - N/A   Clear
5:53 PM 68.0 °F - 48.9 °F 50% 30.11 in 10.0 mi East 13.8 mph - N/A   Clear
6:53 PM 64.9 °F - 48.0 °F 54% 30.09 in 10.0 mi ESE 12.7 mph - N/A   Clear
7:53 PM 62.1 °F - 46.9 °F 58% 30.09 in 10.0 mi East 13.8 mph - N/A   Clear
8:53 PM 59.0 °F - 46.9 °F 64% 30.08 in 10.0 mi ESE 11.5 mph - N/A   Clear
9:53 PM 59.0 °F - 48.0 °F 67% 30.09 in 10.0 mi SE 9.2 mph - N/A   Clear
10:53 PM 60.1 °F - 48.0 °F 64% 30.09 in 10.0 mi SSE 8.1 mph - N/A   Mostly Cloudy
11:53 PM 60.1 °F - 48.0 °F 64% 30.08 in 10.0 mi SSE 9.2 mph - N/A   Clear